Regional Weather Roundup
Issued by NWS Newport/Morehead, NC

Current Version | Previous Version | Text Only | Print | Product List | Glossary Off
Versions: 1 2 3 4 5 6 7 8 9 10 11 12 13 14 15 16 17 18 19 20 21 22 23 24 25 26 27 28 29 30 31 32 33 34 35 36 37 38 39 40 41 42 43 44 45 46 47 48 49 50
000 ASUS42 KMHX 282310 RWRMHX WEATHER ROUNDUP FOR EASTERN NORTH CAROLINA NATIONAL WEATHER SERVICE NEWPORT/MOREHEAD CITY NC 600 PM EST WED JAN 28 2015 NOTE: "FAIR" INDICATES FEW OR NO CLOUDS BELOW 12,000 FEET WITH NO SIGNIFICANT WEATHER AND/OR OBSTRUCTIONS TO VISIBILITY NCZ015>017-031-032-045>047-102-103-290000- NORTH COAST CITY SKY/WX TMP DP RH WIND PRES REMARKS EDENTON CLEAR 37 11 33 N8 30.25R ELIZABETH CITY CLEAR 34 13 41 NW5 30.24R KITTY HAWK CLEAR 36 11 36 NW5 30.21R MANTEO CLEAR 37 12 35 N8 30.23R $$ NCZ045>047-081-094-103-104-290000- CENTRAL COAST CITY SKY/WX TMP DP RH WIND PRES REMARKS FRISCO CLEAR 38 16 40 NW9 30.22R SWANQUARTER NOT AVBL $$ NCZ095-097-098-100-101-290000- SOUTHERN COAST CITY SKY/WX TMP DP RH WIND PRES REMARKS BEAUFORT CLEAR 39 17 41 N9 30.26R CEDAR ISLAND NOT AVBL JACKSONVILLE CLEAR 39 16 39 NW8 30.27R PINEY ISLAND N/A N/A N/A N/A MISG 30.25R WILMINGTON CLEAR 40 15 36 N6 30.27R $$ NCZ011>013-027>030-043-044-078>080-089-090>093-098-290000- COASTAL PLAIN CITY SKY/WX TMP DP RH WIND PRES REMARKS AHOSKIE CLEAR 35 8 31 CALM 30.28R CLINTON CLEAR 38 21 49 CALM 30.28R ELIZABETHTOWN CLEAR 40 15 35 CALM 30.27R GOLDSBORO CLEAR 40 12 31 CALM 30.26R GREENVILLE CLEAR 37 10 32 CALM 30.28R HAVELOCK CLEAR 41 10 28 NW12 30.27R KENANSVILLE CLEAR 38 15 40 CALM 30.28R KINSTON CLEAR 37 10 32 CALM 30.28R NEW BERN CLEAR 39 12 33 NW5 30.27R RICHLANDS CLEAR 37 12 35 CALM 30.28R ROCKY MOUNT CLEAR 36 13 38 CALM 30.27R WASHINGTON CLEAR 38 10 31 NW3 30.27R WHITEVILLE CLEAR 41 15 34 CALM 30.27R $$ AMZ130-135-150-152-154-156-158-170-250-252-270-ANZ085-086-088-633-658-670-290000- MARINE OBSERVATIONS STATION/POSITION TIME TEMP WIND PRES WAVE SWELL AIR SEA DIR/SP/G HT/PER HT/PER (UTC) (F) (DEG/KT/KT) (MB) (FT/S) (FT/S) CHESAPEAKE LIGHT 2200 36 330/ 26/ 28 1023.0 64 E VA BEACH 2300 38 51 330/ 23/ 27 1021.4 8/ 6 3/13 DUCK 2300 38 42 330/ 14/ 16 1022.3 2 E DUCK 2300 42 N/A 5/12 2/12 10 NE DUCK 2300 45 N/A 7/13 3/13 OREGON INLET 2300 34 42 340/ 5/ 7 1022.9 13E OREGON INLT 2300 44 N/A 8/ 6 3/12 HATTERAS CG 2300 40 45 330/ 15/ 18 1023.4 DIAMOND BUOY 2300 40 340/ 17/ 21 1022.6 5/11 3/11 17 S OCRACOKE NOT AVBL CAPE LOOKOUT 2200 42 360/ 12/ 13 1023.1 BEAUFORT LAB 2300 41 47 350/ 7/ 11 1023.2 27 SE WRIGHTSVLE NOT AVBL 5 SE WRIGHTSVLE 2200 46 53 340/ 14/ 17 1024.1 225 S CAPE HAT 2206 56 72 340/ 23/ 29 1019.2 10/ 7 5/12 41 SE CHARLESTON 2300 47 65 350/ 12/ 16 1024.7 4/ 6 3/13 $$

USA.gov is the U.S. government's official web portal to all federal, state and local government web resources and services.